DAL4955 KLGA-KDTW

Flight info

Callsign DAL4955
Flight time 1h 12m
Altitude 38000
Route GLDMN8 GLDMN COATE Q436 HERBA DONEO TPGUN2
Aircraft A319/M-SDE3FGHIRWY/LB1

Departure

Time 2026-05-05 00:26
Airport LaGuardia Airport (KLGA)

Arrival

Time 2026-05-05 01:39
Airport Detroit Metropolitan Wayne County Airport (KDTW)
Time Latitude Longitude Altitude Speed Heading
2026-05-04 23:59 40.77630 -73.87381 20 ft 0 kts 171°
2026-05-05 00:06 40.77638 -73.87383 19 ft 2 kts 171°
2026-05-05 00:07 40.77654 -73.87386 19 ft 2 kts 171°
2026-05-05 00:07 40.77670 -73.87389 19 ft 2 kts 182°
2026-05-05 00:07 40.77684 -73.87395 19 ft 2 kts 108°
2026-05-05 00:07 40.77685 -73.87399 19 ft 0 kts 91°
2026-05-05 00:20 40.77685 -73.87388 18 ft 5 kts 91°
2026-05-05 00:20 40.77709 -73.87302 18 ft 14 kts 56°
2026-05-05 00:20 40.77770 -73.87276 18 ft 4 kts 14°
2026-05-05 00:20 40.77811 -73.87275 17 ft 7 kts 348°
2026-05-05 00:21 40.77842 -73.87328 20 ft 8 kts 291°
2026-05-05 00:21 40.77866 -73.87373 21 ft 4 kts 322°
2026-05-05 00:21 40.77875 -73.87382 18 ft 0 kts 322°
2026-05-05 00:22 40.77892 -73.87402 20 ft 14 kts 317°
2026-05-05 00:22 40.77974 -73.87548 16 ft 24 kts 302°
2026-05-05 00:22 40.78069 -73.87749 18 ft 22 kts 302°
2026-05-05 00:23 40.78104 -73.87819 16 ft 0 kts 313°
2026-05-05 00:23 40.78114 -73.87832 16 ft 11 kts 315°
2026-05-05 00:23 40.78140 -73.87856 17 ft 0 kts 338°
2026-05-05 00:24 40.78153 -73.87863 20 ft 14 kts 339°
2026-05-05 00:24 40.78217 -73.87822 18 ft 0 kts 128°
2026-05-05 00:24 40.78217 -73.87821 18 ft 0 kts 128°
2026-05-05 00:25 40.78174 -73.87745 16 ft 49 kts 126°
2026-05-05 00:25 40.77802 -73.86965 19 ft 149 kts 122°
2026-05-05 00:26 40.77093 -73.85501 55 ft 221 kts 123°
2026-05-05 00:26 40.76149 -73.83742 672 ft 237 kts 137°
2026-05-05 00:26 40.74759 -73.82814 1991 ft 223 kts 166°
2026-05-05 00:26 40.73259 -73.82426 3233 ft 216 kts 173°
2026-05-05 00:27 40.71786 -73.82514 4420 ft 213 kts 202°
2026-05-05 00:27 40.70539 -73.83559 5450 ft 215 kts 228°
2026-05-05 00:27 40.69590 -73.85091 6409 ft 218 kts 234°
2026-05-05 00:27 40.68608 -73.86666 7373 ft 226 kts 232°
2026-05-05 00:28 40.67798 -73.88453 8314 ft 231 kts 253°
2026-05-05 00:28 40.67668 -73.90587 9118 ft 247 kts 278°
2026-05-05 00:28 40.68368 -73.92761 9681 ft 270 kts 301°
2026-05-05 00:28 40.69382 -73.94900 10325 ft 292 kts 301°
2026-05-05 00:29 40.70499 -73.97215 10968 ft 303 kts 305°
2026-05-05 00:29 40.71832 -73.99423 11814 ft 310 kts 306°
2026-05-05 00:29 40.73180 -74.01642 12731 ft 310 kts 306°
2026-05-05 00:29 40.74539 -74.03879 13587 ft 315 kts 307°
2026-05-05 00:30 40.75919 -74.06151 14446 ft 319 kts 307°
2026-05-05 00:30 40.77292 -74.08449 15270 ft 319 kts 306°
2026-05-05 00:30 40.78667 -74.10772 16022 ft 324 kts 307°
2026-05-05 00:30 40.80040 -74.13092 16750 ft 327 kts 305°
2026-05-05 00:31 40.81454 -74.15479 17505 ft 332 kts 306°
2026-05-05 00:31 40.82889 -74.17871 18243 ft 334 kts 306°
2026-05-05 00:31 40.84341 -74.20291 18946 ft 338 kts 306°
2026-05-05 00:31 40.85818 -74.22726 19658 ft 343 kts 307°
2026-05-05 00:32 40.87310 -74.25214 20407 ft 346 kts 306°
2026-05-05 00:32 40.88801 -74.27719 21124 ft 348 kts 308°
2026-05-05 00:32 40.90309 -74.30229 21769 ft 352 kts 305°
2026-05-05 00:32 40.91805 -74.32754 22432 ft 356 kts 306°
2026-05-05 00:33 40.93344 -74.35331 23124 ft 360 kts 307°
2026-05-05 00:33 40.94912 -74.37936 23831 ft 361 kts 308°
2026-05-05 00:33 40.96468 -74.40539 24420 ft 363 kts 307°
2026-05-05 00:33 40.98040 -74.43168 24983 ft 366 kts 308°
2026-05-05 00:34 40.99615 -74.45831 25553 ft 369 kts 307°
2026-05-05 00:34 41.01199 -74.48511 26125 ft 372 kts 306°
2026-05-05 00:34 41.02804 -74.51219 26699 ft 374 kts 308°
2026-05-05 00:34 41.04390 -74.53892 27186 ft 376 kts 307°
2026-05-05 00:35 41.06017 -74.56608 27661 ft 378 kts 308°
2026-05-05 00:35 41.07654 -74.59351 28140 ft 381 kts 308°
2026-05-05 00:35 41.09293 -74.62117 28600 ft 382 kts 308°
2026-05-05 00:35 41.10925 -74.64906 29032 ft 385 kts 304°
2026-05-05 00:36 41.12566 -74.67731 29518 ft 389 kts 307°
2026-05-05 00:36 41.14132 -74.70675 29992 ft 393 kts 300°
2026-05-05 00:36 41.15505 -74.73826 30487 ft 395 kts 300°
2026-05-05 00:36 41.16877 -74.76977 30938 ft 396 kts 302°
2026-05-05 00:37 41.18248 -74.80117 31346 ft 399 kts 302°
2026-05-05 00:37 41.19639 -74.83324 31775 ft 402 kts 301°
2026-05-05 00:37 41.21036 -74.86545 32182 ft 403 kts 300°
2026-05-05 00:37 41.22439 -74.89791 32579 ft 405 kts 300°
2026-05-05 00:38 41.23841 -74.93024 33120 ft 401 kts 301°
2026-05-05 00:38 41.25231 -74.96222 33618 ft 399 kts 302°
2026-05-05 00:38 41.26615 -74.99425 34095 ft 400 kts 301°
2026-05-05 00:38 41.27990 -75.02627 34615 ft 400 kts 302°
2026-05-05 00:39 41.29346 -75.05779 35100 ft 397 kts 300°
2026-05-05 00:39 41.30723 -75.08956 35481 ft 397 kts 299°
2026-05-05 00:39 41.32106 -75.12134 35839 ft 397 kts 300°
2026-05-05 00:39 41.33479 -75.15315 36158 ft 398 kts 301°
2026-05-05 00:40 41.34854 -75.18516 36490 ft 398 kts 299°
2026-05-05 00:40 41.36222 -75.21711 36888 ft 396 kts 300°
2026-05-05 00:40 41.37581 -75.24879 37379 ft 393 kts 299°
2026-05-05 00:40 41.38939 -75.28031 37742 ft 392 kts 298°
2026-05-05 00:41 41.39837 -75.30125 37847 ft 393 kts 300°
2026-05-05 00:41 41.42970 -75.37448 37889 ft 391 kts 300°
2026-05-05 00:42 41.45637 -75.43715 37867 ft 388 kts 299°
2026-05-05 00:42 41.48129 -75.50129 37869 ft 398 kts 291°
2026-05-05 00:43 41.49798 -75.55962 37854 ft 412 kts 291°
2026-05-05 00:43 41.52204 -75.64405 37876 ft 422 kts 292°
2026-05-05 00:44 41.54320 -75.71702 37868 ft 420 kts 290°
2026-05-05 00:44 41.56045 -75.77729 37862 ft 417 kts 291°
2026-05-05 00:45 41.58117 -75.85023 38030 ft 424 kts 292°
2026-05-05 00:45 41.60268 -75.92550 38008 ft 442 kts 291°
2026-05-05 00:46 41.62805 -76.01505 38169 ft 455 kts 292°
2026-05-05 00:46 41.64683 -76.08206 38124 ft 464 kts 291°
2026-05-05 00:47 41.66975 -76.16321 38169 ft 476 kts 291°
2026-05-05 00:47 41.69333 -76.24694 38155 ft 484 kts 289°
2026-05-05 00:48 41.71713 -76.33165 38151 ft 490 kts 290°
2026-05-05 00:48 41.74088 -76.41733 38155 ft 489 kts 288°
2026-05-05 00:49 41.76436 -76.50228 38158 ft 493 kts 289°
2026-05-05 00:49 41.78804 -76.58833 38166 ft 493 kts 290°
2026-05-05 00:50 41.81198 -76.67439 38159 ft 492 kts 289°
2026-05-05 00:50 41.83553 -76.75978 38153 ft 492 kts 289°
2026-05-05 00:51 41.85908 -76.84636 38168 ft 495 kts 288°
2026-05-05 00:51 41.88258 -76.93301 38167 ft 494 kts 289°
2026-05-05 00:52 41.90615 -77.01968 38152 ft 494 kts 288°
2026-05-05 00:52 41.92966 -77.10600 38160 ft 491 kts 288°
2026-05-05 00:53 41.95270 -77.19189 38172 ft 494 kts 290°
2026-05-05 00:53 41.97620 -77.27886 38174 ft 496 kts 288°
2026-05-05 00:54 41.99954 -77.36641 38189 ft 496 kts 288°
2026-05-05 00:54 42.02277 -77.45336 38161 ft 494 kts 289°
2026-05-05 00:55 42.04642 -77.53986 38154 ft 490 kts 290°
2026-05-05 00:55 42.06996 -77.62557 38142 ft 493 kts 288°
2026-05-05 00:56 42.09338 -77.71232 38165 ft 492 kts 289°
2026-05-05 00:56 42.11658 -77.79907 38146 ft 493 kts 292°
2026-05-05 00:57 42.13988 -77.88583 38148 ft 491 kts 288°
2026-05-05 00:57 42.16309 -77.97220 38178 ft 490 kts 288°
2026-05-05 00:58 42.18600 -78.05825 38156 ft 492 kts 288°
2026-05-05 00:58 42.20885 -78.14510 38131 ft 493 kts 289°
2026-05-05 00:59 42.23178 -78.23234 38148 ft 495 kts 289°
2026-05-05 00:59 42.25946 -78.31727 38175 ft 496 kts 297°
2026-05-05 01:00 42.29120 -78.39939 38180 ft 494 kts 295°
2026-05-05 01:00 42.32216 -78.48138 38168 ft 492 kts 297°
2026-05-05 01:01 42.35321 -78.56379 38165 ft 493 kts 295°
2026-05-05 01:01 42.38430 -78.64626 38155 ft 489 kts 296°
2026-05-05 01:02 42.41532 -78.72801 38149 ft 491 kts 297°
2026-05-05 01:02 42.44617 -78.81011 38168 ft 493 kts 297°
2026-05-05 01:03 42.47708 -78.89308 38168 ft 494 kts 296°
2026-05-05 01:03 42.50808 -78.97611 38164 ft 493 kts 296°
2026-05-05 01:04 42.53900 -79.05889 38164 ft 492 kts 294°
2026-05-05 01:04 42.58477 -79.18223 38146 ft 493 kts 297°
2026-05-05 01:05 42.61556 -79.26540 38114 ft 493 kts 296°
2026-05-05 01:05 42.64651 -79.34856 38113 ft 492 kts 294°
2026-05-05 01:06 42.67712 -79.43196 38125 ft 495 kts 295°
2026-05-05 01:06 42.70728 -79.51464 38133 ft 488 kts 296°
2026-05-05 01:07 42.73760 -79.59729 38106 ft 489 kts 295°
2026-05-05 01:07 42.76729 -79.68104 38132 ft 493 kts 290°
2026-05-05 01:08 42.77984 -79.77173 38134 ft 489 kts 269°
2026-05-05 01:08 42.77295 -79.86348 38158 ft 488 kts 263°
2026-05-05 01:09 42.76557 -79.95505 38153 ft 488 kts 263°
2026-05-05 01:09 42.75807 -80.04674 38111 ft 488 kts 263°
2026-05-05 01:10 42.75015 -80.13836 38115 ft 487 kts 261°
2026-05-05 01:10 42.74196 -80.23003 38143 ft 487 kts 262°
2026-05-05 01:11 42.73390 -80.32163 38149 ft 487 kts 264°
2026-05-05 01:11 42.72683 -80.41242 38147 ft 488 kts 266°
2026-05-05 01:12 42.72303 -80.50473 38153 ft 488 kts 266°
2026-05-05 01:12 42.72159 -80.55058 37902 ft 482 kts 266°
2026-05-05 01:12 42.72010 -80.59591 37127 ft 477 kts 265°
2026-05-05 01:13 42.71843 -80.64090 36204 ft 475 kts 265°
2026-05-05 01:13 42.71649 -80.68597 35195 ft 478 kts 266°
2026-05-05 01:13 42.71438 -80.73100 34168 ft 478 kts 265°
2026-05-05 01:13 42.71229 -80.77534 33276 ft 474 kts 266°
2026-05-05 01:14 42.71034 -80.81974 32429 ft 467 kts 265°
2026-05-05 01:14 42.70823 -80.86340 31585 ft 460 kts 265°
2026-05-05 01:14 42.70618 -80.90652 30714 ft 455 kts 265°
2026-05-05 01:14 42.70414 -80.94909 29873 ft 449 kts 265°
2026-05-05 01:15 42.70207 -80.99108 29040 ft 441 kts 266°
2026-05-05 01:15 42.70006 -81.03257 28214 ft 437 kts 265°
2026-05-05 01:15 42.69814 -81.07349 27389 ft 433 kts 265°
2026-05-05 01:15 42.69626 -81.11400 26584 ft 426 kts 265°
2026-05-05 01:16 42.69436 -81.15393 25782 ft 421 kts 265°
2026-05-05 01:16 42.69248 -81.19337 24977 ft 414 kts 264°
2026-05-05 01:16 42.69056 -81.23225 24374 ft 410 kts 263°
2026-05-05 01:16 42.68852 -81.27047 24163 ft 410 kts 265°
2026-05-05 01:17 42.68650 -81.30905 24153 ft 411 kts 265°
2026-05-05 01:17 42.68454 -81.34842 24153 ft 412 kts 265°
2026-05-05 01:17 42.68221 -81.38674 24032 ft 412 kts 264°
2026-05-05 01:17 42.67918 -81.42535 23775 ft 410 kts 263°
2026-05-05 01:18 42.67573 -81.46371 23518 ft 408 kts 262°
2026-05-05 01:18 42.67213 -81.50198 23265 ft 407 kts 261°
2026-05-05 01:18 42.66853 -81.53991 23013 ft 403 kts 261°
2026-05-05 01:18 42.66500 -81.57756 22760 ft 402 kts 262°
2026-05-05 01:19 42.66157 -81.61528 22499 ft 402 kts 262°
2026-05-05 01:19 42.65841 -81.65301 22251 ft 400 kts 263°
2026-05-05 01:19 42.65531 -81.69042 21964 ft 399 kts 263°
2026-05-05 01:19 42.65226 -81.72771 21489 ft 396 kts 264°
2026-05-05 01:20 42.64905 -81.76484 21001 ft 394 kts 262°
2026-05-05 01:20 42.64581 -81.80151 20518 ft 389 kts 262°
2026-05-05 01:20 42.64264 -81.83731 20040 ft 385 kts 261°
2026-05-05 01:20 42.63947 -81.87330 19575 ft 384 kts 262°
2026-05-05 01:21 42.63628 -81.90902 19103 ft 381 kts 262°
2026-05-05 01:21 42.63314 -81.94458 18625 ft 377 kts 262°
2026-05-05 01:21 42.62993 -81.97993 18154 ft 378 kts 262°
2026-05-05 01:21 42.62664 -82.01498 17695 ft 371 kts 262°
2026-05-05 01:22 42.62346 -82.04975 17172 ft 371 kts 262°
2026-05-05 01:22 42.62030 -82.08436 16899 ft 368 kts 263°
2026-05-05 01:22 42.61725 -82.11872 16464 ft 366 kts 262°
2026-05-05 01:22 42.61416 -82.15277 16004 ft 363 kts 262°
2026-05-05 01:23 42.61114 -82.18672 15549 ft 360 kts 262°
2026-05-05 01:23 42.60811 -82.22002 15109 ft 359 kts 262°
2026-05-05 01:23 42.60512 -82.25354 14674 ft 357 kts 262°
2026-05-05 01:23 42.60206 -82.28675 14236 ft 353 kts 262°
2026-05-05 01:24 42.59901 -82.31981 13797 ft 352 kts 261°
2026-05-05 01:24 42.59594 -82.35260 13357 ft 351 kts 263°
2026-05-05 01:24 42.59295 -82.38525 12919 ft 346 kts 262°
2026-05-05 01:24 42.58931 -82.41734 12488 ft 343 kts 254°
2026-05-05 01:25 42.58137 -82.44775 12064 ft 340 kts 246°
2026-05-05 01:25 42.57226 -82.47718 11620 ft 339 kts 246°
2026-05-05 01:25 42.56313 -82.50642 11188 ft 335 kts 244°
2026-05-05 01:25 42.55393 -82.53534 10788 ft 334 kts 245°
2026-05-05 01:26 42.54497 -82.56363 10357 ft 329 kts 244°
2026-05-05 01:26 42.53597 -82.59208 9944 ft 327 kts 245°
2026-05-05 01:26 42.52714 -82.62051 9383 ft 327 kts 246°
2026-05-05 01:26 42.51849 -82.64882 8911 ft 321 kts 245°
2026-05-05 01:27 42.51012 -82.67657 8775 ft 308 kts 246°
2026-05-05 01:27 42.50216 -82.70240 8642 ft 288 kts 243°
2026-05-05 01:27 42.49453 -82.72639 8508 ft 268 kts 244°
2026-05-05 01:27 42.48873 -82.74956 8370 ft 254 kts 257°
2026-05-05 01:28 42.48763 -82.77285 8131 ft 245 kts 273°
2026-05-05 01:28 42.49112 -82.79542 7667 ft 246 kts 289°
2026-05-05 01:28 42.49871 -82.81585 7493 ft 244 kts 298°
2026-05-05 01:28 42.50690 -82.83561 7500 ft 244 kts 297°
2026-05-05 01:29 42.51511 -82.85583 7498 ft 247 kts 297°
2026-05-05 01:29 42.52325 -82.87615 7504 ft 244 kts 296°
2026-05-05 01:29 42.53129 -82.89645 7496 ft 244 kts 297°
2026-05-05 01:29 42.53937 -82.91679 7502 ft 245 kts 298°
2026-05-05 01:30 42.54746 -82.93706 7503 ft 242 kts 295°
2026-05-05 01:30 42.55551 -82.95736 7499 ft 246 kts 296°
2026-05-05 01:30 42.56360 -82.97771 7498 ft 246 kts 298°
2026-05-05 01:30 42.57135 -82.99854 7091 ft 252 kts 286°
2026-05-05 01:31 42.57425 -83.02234 6402 ft 260 kts 267°
2026-05-05 01:31 42.57262 -83.04681 5789 ft 261 kts 252°
2026-05-05 01:31 42.56512 -83.06862 5518 ft 249 kts 230°
2026-05-05 01:31 42.55332 -83.08387 5511 ft 232 kts 214°
2026-05-05 01:32 42.54006 -83.09597 5502 ft 227 kts 209°
2026-05-05 01:32 42.52635 -83.10665 5500 ft 230 kts 208°
2026-05-05 01:32 42.51235 -83.11708 5500 ft 228 kts 209°
2026-05-05 01:32 42.49849 -83.12745 5506 ft 227 kts 206°
2026-05-05 01:33 42.48458 -83.13777 5493 ft 228 kts 209°
2026-05-05 01:33 42.47068 -83.14804 5508 ft 228 kts 206°
2026-05-05 01:33 42.45685 -83.15833 5503 ft 226 kts 207°
2026-05-05 01:33 42.44301 -83.16866 5453 ft 226 kts 207°
2026-05-05 01:34 42.42922 -83.17891 5232 ft 224 kts 208°
2026-05-05 01:34 42.41577 -83.18890 4965 ft 218 kts 209°
2026-05-05 01:34 42.40281 -83.19858 4685 ft 213 kts 207°
2026-05-05 01:34 42.39004 -83.20807 4398 ft 208 kts 208°
2026-05-05 01:35 42.37738 -83.21745 4134 ft 207 kts 208°
2026-05-05 01:35 42.36492 -83.22664 3869 ft 201 kts 207°
2026-05-05 01:35 42.35292 -83.23558 3601 ft 195 kts 207°
2026-05-05 01:35 42.34112 -83.24436 3303 ft 192 kts 205°
2026-05-05 01:36 42.32944 -83.25292 3068 ft 191 kts 205°
2026-05-05 01:36 42.31781 -83.26154 2829 ft 191 kts 207°
2026-05-05 01:36 42.30619 -83.27014 2571 ft 190 kts 205°
2026-05-05 01:36 42.29470 -83.27862 2333 ft 191 kts 207°
2026-05-05 01:37 42.28316 -83.28718 2064 ft 188 kts 208°
2026-05-05 01:37 42.27190 -83.29547 1829 ft 181 kts 206°
2026-05-05 01:37 42.26095 -83.30357 1582 ft 178 kts 207°
2026-05-05 01:37 42.25007 -83.31167 1277 ft 183 kts 210°
2026-05-05 01:38 42.23885 -83.32014 1144 ft 186 kts 207°
2026-05-05 01:38 42.22720 -83.32884 840 ft 197 kts 206°
2026-05-05 01:38 42.21502 -83.33763 652 ft 191 kts 210°
2026-05-05 01:38 42.20492 -83.34527 650 ft 140 kts 208°
2026-05-05 01:39 42.19927 -83.34928 647 ft 48 kts 207°
2026-05-05 01:39 42.19594 -83.35178 649 ft 30 kts 233°
2026-05-05 01:39 42.19632 -83.35312 650 ft 7 kts 307°
2026-05-05 01:39 42.19633 -83.35313 650 ft 0 kts 308°
2026-05-05 01:42 42.19649 -83.35331 650 ft 8 kts 337°
2026-05-05 01:42 42.19748 -83.35301 651 ft 20 kts 28°
2026-05-05 01:43 42.19864 -83.35209 651 ft 19 kts 29°
2026-05-05 01:43 42.19995 -83.35118 649 ft 23 kts 22°
2026-05-05 01:43 42.20070 -83.35145 652 ft 12 kts 278°
2026-05-05 01:43 42.20078 -83.35352 650 ft 31 kts 269°
2026-05-05 01:44 42.20077 -83.35603 650 ft 29 kts 270°
2026-05-05 01:44 42.20071 -83.35895 650 ft 33 kts 268°
2026-05-05 01:44 42.20148 -83.36028 650 ft 21 kts 351°
2026-05-05 01:44 42.20318 -83.36007 650 ft 28 kts
2026-05-05 01:45 42.20461 -83.35962 650 ft 17 kts 21°
2026-05-05 01:45 42.20588 -83.35867 650 ft 25 kts 32°
2026-05-05 01:45 42.20697 -83.35807 650 ft 12 kts 313°
2026-05-05 01:45 42.20714 -83.35832 650 ft 0 kts 310°